Muskegon, MI

5:24 AM EDT on June 27, 2017 (GMT -0400)
Muskegon County

Weather History for KMKG - January, 2013

Change the Weather History Date:

Tuesday, January 1, 2013

  Actual Average Record
Temperature  
Mean Temperature 24 °F 27 °F  
Max Temperature 26 °F 32 °F 57 °F (2011)
Min Temperature 21 °F 22 °F -9 °F (1964)
Degree Days  
Heating Degree Days 41 38  
Month to date heating degree days 41 38  
Since 1 July heating degree days 2240 2484  
Cooling Degree Days 0 0  
Month to date cooling degree days 0 0  
Year to date cooling degree days 0 0  
Moisture  
Dew Point 13 °F    
Average Humidity 63    
Maximum Humidity 68    
Minimum Humidity 57    
Precipitation  
Precipitation T in 0.07 in 0.68 in (1985)
Month to date precipitation T 0.07  
Year to date precipitation T 0.07  
Snow  
Snow T in 0.90 in 6.60 in (1948)
Month to date snowfall T 0.9  
Since 1 July snowfall 8.2 36.0  
Snow Depth 2.00 in    
Sea Level Pressure  
Sea Level Pressure 30.15 in    
Wind  
Wind Speed 7 mph (NNW)    
Max Wind Speed 15 mph    
Max Gust Speed 20 mph    
Visibility 9 miles    
Events Snow    
T = Trace of Precipitation, MM = Missing Value Source: NWS Daily Summary

Daily Weather History Graph

Daily Weather History Graph

Search for Another Location

Airport or City:

Trip Planner

Search our weather history database for the weather conditions in past years. The results will help you decide how hot, cold, wet, or windy it might be!

Date:

Astronomy

Jan. 01, 2013 Rise Set
Actual Time 8:16 AM EST 5:20 PM EST
Civil Twilight 7:44 AM EST 5:53 PM EST
Nautical Twilight 7:08 AM EST 6:28 PM EST
Astronomical Twilight 6:34 AM EST 7:03 PM EST
Moon 9:59 PM EST (1/1) 10:21 AM EST (1/1)
Length of Visible Light 10h 08m
Length of Day
9h 03m
Waning Gibbous, 83% of the Moon is Illuminated
Jan 1
Waning Gibbous
Jan 4
Last Quarter
Jan 11
New
Jan 18
First Quarter
Jan 26
Full

Hourly Weather History & Observations

Time (EST) Temp. Windchill Dew Point Humidity Pressure Visibility Wind Dir Wind Speed Gust Speed Precip Events Conditions
12:55 AM 26.1 °F 19.4 °F 14.0 °F 60% 30.10 in 10.0 mi North 5.8 mph - N/A   Overcast
1:55 AM 25.0 °F 16.3 °F 14.0 °F 63% 30.11 in 10.0 mi North 8.1 mph - N/A   Overcast
2:55 AM 24.1 °F 15.2 °F 14.0 °F 65% 30.12 in 10.0 mi North 8.1 mph - N/A   Overcast
3:55 AM 24.1 °F 16.0 °F 14.0 °F 65% 30.13 in 10.0 mi NNE 6.9 mph - N/A   Overcast
4:55 AM 23.0 °F 13.9 °F 12.9 °F 65% 30.14 in 10.0 mi NE 8.1 mph - N/A   Overcast
5:55 AM 21.9 °F 14.5 °F 10.9 °F 63% 30.14 in 10.0 mi NE 5.8 mph - N/A   Overcast
6:55 AM 21.9 °F 14.5 °F 10.9 °F 63% 30.15 in 9.0 mi NNE 5.8 mph - 0.00 in Snow Light Snow
7:55 AM 21.9 °F 17.2 °F 12.0 °F 66% 30.17 in 9.0 mi NNE 3.5 mph - 0.00 in Snow Light Snow
8:55 AM 21.9 °F - 12.9 °F 68% 30.19 in 9.0 mi Calm Calm - 0.00 in Snow Light Snow
9:55 AM 23.0 °F 15.8 °F 12.9 °F 65% 30.19 in 9.0 mi NNE 5.8 mph - 0.00 in Snow Light Snow
10:53 AM 23.0 °F 17.0 °F 12.2 °F 63% 30.16 in 9.0 mi North 4.6 mph - 0.00 in Snow Light Snow
10:55 AM 23.0 °F 15.8 °F 14.0 °F 68% 30.19 in 9.0 mi NNE 5.8 mph - 0.00 in Snow Light Snow
11:20 AM 24.8 °F 16.9 °F 12.2 °F 59% 30.15 in 9.0 mi North 6.9 mph - 0.00 in Snow Light Snow
11:55 AM 24.1 °F 19.7 °F 12.9 °F 62% 30.16 in 9.0 mi NNW 3.5 mph - 0.00 in Snow Light Snow
12:23 PM 24.8 °F 16.9 °F 12.2 °F 59% 30.12 in 9.0 mi NW 6.9 mph - 0.00 in Snow Light Snow
12:55 PM 24.1 °F 16.0 °F 12.9 °F 62% 30.15 in 9.0 mi NNW 6.9 mph - 0.00 in Snow Light Snow
1:55 PM 24.1 °F 15.2 °F 14.0 °F 65% 30.14 in 9.0 mi WNW 8.1 mph - 0.00 in Snow Light Snow
2:55 PM 23.0 °F 11.7 °F 12.0 °F 63% 30.14 in 9.0 mi West 11.5 mph - 0.00 in Snow Light Snow
3:55 PM 21.9 °F 11.7 °F 12.9 °F 68% 30.15 in 9.0 mi West 9.2 mph 16.1 mph 0.00 in Snow Light Snow
4:55 PM 21.9 °F 12.5 °F 12.0 °F 66% 30.15 in 9.0 mi West 8.1 mph - 0.00 in Snow Light Snow
5:55 PM 21.0 °F 9.9 °F 12.0 °F 68% 30.16 in 9.0 mi WNW 10.4 mph 18.4 mph 0.00 in Snow Light Snow
6:55 PM 21.0 °F 10.6 °F 10.9 °F 65% 30.15 in 9.0 mi WNW 9.2 mph - 0.00 in Snow Light Snow
7:55 PM 21.9 °F 12.5 °F 12.9 °F 68% 30.15 in 9.0 mi West 8.1 mph - 0.00 in Snow Light Snow
8:55 PM 21.9 °F 12.5 °F 12.0 °F 66% 30.15 in 10.0 mi West 8.1 mph - 0.00 in   Mostly Cloudy
9:55 PM 21.0 °F 8.1 °F 10.9 °F 65% 30.14 in 10.0 mi WNW 13.8 mph - N/A   Mostly Cloudy
10:55 PM 21.9 °F 11.7 °F 12.0 °F 66% 30.13 in 10.0 mi WNW 9.2 mph - N/A   Mostly Cloudy
11:55 PM 21.9 °F 12.5 °F 12.0 °F 66% 30.13 in 10.0 mi WNW 8.1 mph - N/A   Overcast